Weather History for Waycross, GA

Change the Weather History Date:

Sunday, September 8, 2013

  Actual Average (KAMG) Record (KAMG)
Temperature  
Mean Temperature 80 °F 79 °F  
Max Temperature 91 °F 89 °F 101 °F (1990)
Min Temperature 69 °F 69 °F 56 °F (2011)
Degree Days  
Heating Degree Days 0 0  
Month to date heating degree days 0  
Since 1 July heating degree days 0  
Cooling Degree Days 15 14  
Month to date cooling degree days 115  
Year to date cooling degree days 2022  
Growing Degree Days 30 (Base 50)    
Moisture  
Dew Point 72 °F    
Average Humidity 78    
Maximum Humidity 100    
Minimum Humidity 49    
Precipitation  
Precipitation 0.00 in 0.13 in 1.37 in (2014)
Month to date precipitation 1.10  
Year to date precipitation 35.31  
Snow  
Snow 0.00 in 0.00 in 0.00 in ()
Month to date snowfall 0.0  
Since 1 July snowfall 0.0  
Since 1 September snowfall 0.0  
Snow Depth -    
Sea Level Pressure  
Sea Level Pressure 29.97 in    
Wind  
Wind Speed 1 mph (NE)    
Max Wind Speed 8 mph    
Max Gust Speed -    
Visibility 8 miles    
Events      
T = Trace of Precipitation, MM = Missing Value Source: NWS Daily Summary

Daily Weather History Graph

Daily Weather History Graph

Search for Another Location

Airport:

Trip Planner

Search our weather history database for the weather conditions in past years. The results will help you decide how hot, cold, wet, or windy it might be!

Date:

Astronomy

Sep. 08, 2013 Rise Set
Actual Time 7:09 AM EDT 7:43 PM EDT
Civil Twilight 6:45 AM EDT 8:08 PM EDT
Nautical Twilight 6:16 AM EDT 8:37 PM EDT
Astronomical Twilight 5:47 AM EDT 9:06 PM EDT
Moon 10:09 AM EDT (9/8) 9:36 PM EDT (9/8)
Length of Visible Light 13h 23m
Length of Day
12h 34m
Waxing Crescent, 11% of the Moon is Illuminated
Sep 8
Waxing Crescent
Sep 12
First Quarter
Sep 19
Full
Sep 26
Last Quarter
Oct 4
New

Hourly Weather History & Observations

Time (EDT) Temp. Heat Index Dew Point Humidity Pressure Visibility Wind Dir Wind Speed Gust Speed Precip Events Conditions
12:15 AM 73.4 °F - 73.4 °F 100% 30.02 in 7.0 mi Calm Calm - N/A   Clear
12:55 AM 73.4 °F - 73.4 °F 100% 30.01 in 7.0 mi Calm Calm - N/A   Clear
1:15 AM 73.4 °F - 71.6 °F 94% 30.00 in 7.0 mi Calm Calm - N/A   Clear
1:35 AM 73.4 °F - 71.6 °F 94% 30.00 in 5.0 mi Calm Calm - N/A   Clear
1:55 AM 73.4 °F - 71.6 °F 94% 30.00 in 5.0 mi Calm Calm - N/A   Clear
2:15 AM 71.6 °F - 71.6 °F 100% 29.99 in 7.0 mi Calm Calm - N/A   Clear
2:35 AM 73.4 °F - 71.6 °F 94% 29.98 in 4.0 mi Calm Calm - N/A   Clear
2:55 AM 71.6 °F - 71.6 °F 100% 29.98 in 7.0 mi Calm Calm - N/A   Clear
3:15 AM 71.6 °F - 71.6 °F 100% 29.97 in 7.0 mi Calm Calm - N/A   Clear
3:35 AM 71.6 °F - 71.6 °F 100% 29.97 in 3.0 mi Calm Calm - N/A   Clear
3:55 AM 71.6 °F - 71.6 °F 100% 29.97 in 4.0 mi Calm Calm - N/A   Clear
4:15 AM 71.6 °F - 71.6 °F 100% 29.97 in 7.0 mi Calm Calm - N/A   Clear
4:35 AM 71.6 °F - 69.8 °F 94% 29.97 in 7.0 mi Calm Calm - N/A   Clear
4:55 AM 71.6 °F - 69.8 °F 94% 29.97 in 7.0 mi Calm Calm - N/A   Clear
5:15 AM 69.8 °F - 69.8 °F 100% 29.97 in 5.0 mi Calm Calm - N/A   Clear
5:35 AM 71.6 °F - 69.8 °F 94% 29.97 in 7.0 mi Calm Calm - N/A   Clear
5:55 AM 69.8 °F - 69.8 °F 100% 29.97 in 5.0 mi Calm Calm - N/A   Clear
6:15 AM 69.8 °F - 69.8 °F 100% 29.98 in 7.0 mi Calm Calm - N/A   Clear
6:35 AM 69.8 °F - 69.8 °F 100% 29.98 in 4.0 mi Calm Calm - N/A   Clear
6:55 AM 69.8 °F - 69.8 °F 100% 29.99 in 4.0 mi Calm Calm - N/A   Clear
7:15 AM 69.8 °F - 69.8 °F 100% 30.00 in 2.5 mi Calm Calm - N/A   Clear
7:35 AM 69.8 °F - 69.8 °F 100% 30.00 in 4.0 mi Calm Calm - N/A   Clear
7:55 AM 71.6 °F - 71.6 °F 100% 30.00 in 5.0 mi Calm Calm - N/A   Clear
8:15 AM 71.6 °F - 71.6 °F 100% 30.00 in 5.0 mi Calm Calm - N/A   Clear
8:35 AM 73.4 °F - 73.4 °F 100% 30.01 in 5.0 mi Calm Calm - N/A   Clear
8:55 AM 75.2 °F - 73.4 °F 94% 30.01 in 7.0 mi Calm Calm - N/A   Clear
9:15 AM 77.0 °F - 75.2 °F 94% 30.01 in 7.0 mi Calm Calm - N/A   Clear
9:35 AM 78.8 °F - 75.2 °F 89% 30.01 in 7.0 mi Calm Calm - N/A   Clear
9:55 AM 80.6 °F 86.2 °F 75.2 °F 84% 30.01 in 10.0 mi Calm Calm - N/A   Clear
10:15 AM 82.4 °F 88.2 °F 73.4 °F 74% 30.01 in 10.0 mi West 3.5 mph - N/A   Clear
10:35 AM 84.2 °F 89.6 °F 71.6 °F 66% 30.01 in 10.0 mi Calm Calm - N/A   Clear
10:55 AM 84.2 °F 89.6 °F 71.6 °F 66% 30.01 in 10.0 mi West 3.5 mph - N/A   Clear
11:15 AM 86.0 °F 93.4 °F 73.4 °F 66% 30.01 in 10.0 mi Calm Calm - N/A   Clear
11:35 AM 87.8 °F 93.8 °F 71.6 °F 58% 30.00 in 10.0 mi Calm Calm - N/A   Clear
11:55 AM 87.8 °F 93.8 °F 71.6 °F 58% 30.00 in 10.0 mi NNW 8.1 mph - N/A   Clear
12:15 PM 87.8 °F 93.8 °F 71.6 °F 58% 30.00 in 10.0 mi Calm Calm - N/A   Clear
12:35 PM 87.8 °F 93.8 °F 71.6 °F 58% 29.99 in 10.0 mi East 4.6 mph - N/A   Scattered Clouds
12:55 PM 89.6 °F 96.2 °F 71.6 °F 55% 29.98 in 10.0 mi NW 4.6 mph - N/A   Scattered Clouds
1:15 PM 89.6 °F 96.2 °F 71.6 °F 55% 29.98 in 10.0 mi East 4.6 mph - N/A   Scattered Clouds
1:35 PM 89.6 °F 96.2 °F 71.6 °F 55% 29.97 in 10.0 mi Calm Calm - N/A   Scattered Clouds
1:55 PM 89.6 °F 96.2 °F 71.6 °F 55% 29.97 in 10.0 mi NE 3.5 mph - N/A   Scattered Clouds
2:15 PM 89.6 °F 96.2 °F 71.6 °F 55% 29.97 in 10.0 mi Calm Calm - N/A   Scattered Clouds
2:35 PM 91.4 °F 98.4 °F 71.6 °F 52% 29.96 in 10.0 mi East 4.6 mph - N/A   Clear
2:55 PM 91.4 °F 96.8 °F 69.8 °F 49% 29.95 in 10.0 mi NE 5.8 mph - N/A   Scattered Clouds
3:15 PM 91.4 °F 96.8 °F 69.8 °F 49% 29.94 in 10.0 mi WNW 3.5 mph - N/A   Clear
3:35 PM 89.6 °F 94.7 °F 69.8 °F 52% 29.94 in 10.0 mi Calm Calm - N/A   Clear
3:55 PM 89.6 °F 94.7 °F 69.8 °F 52% 29.94 in 10.0 mi Calm Calm - N/A   Scattered Clouds
4:15 PM 91.4 °F 96.8 °F 69.8 °F 49% 29.93 in 10.0 mi NW 3.5 mph - N/A   Scattered Clouds
4:35 PM 91.4 °F 98.4 °F 71.6 °F 52% 29.92 in 10.0 mi NNE 4.6 mph - N/A   Clear
4:55 PM 91.4 °F 96.8 °F 69.8 °F 49% 29.92 in 10.0 mi Calm Calm - N/A   Clear
5:15 PM 91.4 °F 98.4 °F 71.6 °F 52% 29.92 in 10.0 mi Calm Calm - N/A   Clear
5:35 PM 91.4 °F 96.8 °F 69.8 °F 49% 29.92 in 10.0 mi Calm Calm - N/A   Clear
5:55 PM 91.4 °F 96.8 °F 69.8 °F 49% 29.92 in 10.0 mi Calm Calm - N/A   Mostly Cloudy
6:15 PM 91.4 °F 96.8 °F 69.8 °F 49% 29.93 in 10.0 mi Calm Calm - N/A   Scattered Clouds
6:35 PM 91.4 °F 96.8 °F 69.8 °F 49% 29.93 in 10.0 mi NNE 3.5 mph - N/A   Scattered Clouds
6:55 PM 89.6 °F 98.2 °F 73.4 °F 59% 29.93 in 10.0 mi Calm Calm - N/A   Scattered Clouds
7:15 PM 87.8 °F 95.6 °F 73.4 °F 62% 29.93 in 10.0 mi Calm Calm - N/A   Scattered Clouds
7:35 PM 84.2 °F 92.3 °F 75.2 °F 74% 29.93 in 10.0 mi Calm Calm - N/A   Scattered Clouds
7:55 PM 84.2 °F 92.3 °F 75.2 °F 74% 29.93 in 10.0 mi Calm Calm - N/A   Clear
8:15 PM 82.4 °F 88.2 °F 73.4 °F 74% 29.93 in 10.0 mi Calm Calm - N/A   Clear
8:35 PM 80.6 °F 86.2 °F 75.2 °F 84% 29.93 in 10.0 mi Calm Calm - N/A   Clear
8:55 PM 80.6 °F 86.2 °F 75.2 °F 84% 29.93 in 10.0 mi Calm Calm - N/A   Clear
9:15 PM 78.8 °F - 75.2 °F 89% 29.94 in 10.0 mi Calm Calm - N/A   Clear
9:35 PM 78.8 °F - 75.2 °F 89% 29.95 in 10.0 mi Calm Calm - N/A   Clear
9:55 PM 78.8 °F - 73.4 °F 83% 29.96 in 10.0 mi Calm Calm - N/A   Clear
10:15 PM 77.0 °F - 73.4 °F 89% 29.97 in 10.0 mi SSE 5.8 mph - N/A   Clear
10:35 PM 78.8 °F - 73.4 °F 83% 29.97 in 10.0 mi South 4.6 mph - N/A   Clear
10:55 PM 78.8 °F - 73.4 °F 83% 29.98 in 10.0 mi Calm Calm - N/A   Clear
11:15 PM 78.8 °F - 73.4 °F 83% 29.98 in 10.0 mi South 3.5 mph - N/A   Clear
11:35 PM 78.8 °F - 73.4 °F 83% 29.98 in 10.0 mi South 3.5 mph - N/A   Clear
11:55 PM 78.8 °F - 71.6 °F 78% 29.99 in 10.0 mi South 5.8 mph - N/A   Clear